{"data":{"norad_id":52348,"intl_designator":"2022-045T","name":"STARLINK-3829","alt_names":[],"object_type":"PAYLOAD","status":"ACTIVE","operator":null,"country":"US","launch_date":"2022-04-29","launch_site_code":"AFETR","launch_vehicle":null,"mission":null,"orbit_class":"UNKNOWN","rcs_meters":null,"size_class":null,"mass_kg":null,"dimensions":null,"purposes":["comms"],"wikipedia_slug":null,"has_3d_model":false,"image_url":null,"decayed_at":null,"tle_current":{"epoch":"2026-05-25T04:58:26.152032Z","epoch_age_seconds":57151,"freshness":"FRESH","line1":"1 52348U 22045T   26145.20724713  .00000200  00000+0  30661-4 0  9990","line2":"2 52348  53.2139 215.6194 0001105  87.3998 272.7121 15.08839349227335","mean_motion":15.08839349,"eccentricity":0.0001105,"inclination_deg":53.2139,"raan_deg":215.6194,"arg_perigee_deg":87.3998,"mean_anomaly_deg":272.7121,"bstar":3.0661e-5,"rev_number":22733,"period_min":95.437595855011,"perigee_km":538.98095280852,"apogee_km":540.50980481424,"semimajor_km":6917.8823788114,"source":"CELESTRAK","updated_at":"2026-05-25T13:38:17.115962Z"}}}